AirNav   Air Wisconsin pilot careers
 
 476 users online  

21KY Lincoln Farm Airport
Hodgenville, Kentucky, USA

GOING TO HODGENVILLE?


FAA INFORMATION EFFECTIVE 06 DECEMBER 2018

Location

FAA Identifier: 21KY
Lat/Long: 37-32-15.2170N / 085-44-14.8580W
37-32.253617N / 085-44.247633W
37.5375603 / -85.7374606
(estimated)
Elevation: 780 ft. / 238 m (estimated)
Variation: 02W (1985)
From city: 2 miles S of HODGENVILLE, KY
Time zone: UTC -5 (UTC -4 during Daylight Saving Time)
Zip code: 42748

Airport Operations

Airport use: Private use. Permission required prior to landing
Activation date: 08/1988
Control tower: no
ARTCC: INDIANAPOLIS CENTER
FSS: LOUISVILLE FLIGHT SERVICE STATION
Attendance: UNATNDD
Segmented circle: no

Airport Communications

WX AWOS-3 at EKX (13 nm NW): 121.025 (270-763-6433)

Nearby radio navigation aids

VOR radial/distance  VOR name  Freq  Var
EWOr206/6.4NEW HOPE VOR/DME110.8001E
FTKr154/24.8FORT KNOX VOR/DME109.6001W
MYSr133/(32.2)MYSTIC VOR108.2001W
IIUr192/34.8LOUISVILLE VORTAC114.8001E

 
NDB name  Hdg/Dist  Freq  Var  ID
GODMAN159/27.739603WGOI --. --- ..

Airport Services

Runway Information

Runway 3/21

Dimensions: 1700 x 60 ft. / 518 x 18 m
Surface: turf
RUNWAY 3  RUNWAY 21
Traffic pattern: leftleft

Airport Ownership and Management from official FAA records

Ownership: Privately-owned
Owner: JOEL RAY SPROWLS
2579 LINCOLN FARM RD
HODGENVILLE, KY 42748
Phone 502-358-3545

Instrument Procedures

There are no published instrument procedures at 21KY.

Some nearby airports with instrument procedures:

KEKX - Addington Field Airport (13 nm NW)
KBRY - Samuels Field Airport (20 nm NE)
KAAS - Taylor County Airport (23 nm SE)
6I2 - Lebanon Springfield Airport-George Hoerter Field (24 nm E)
KFTK - Godman Army Airfield (25 nm NW)
 
Loc | Ops | Rwys | IFR | FBO | Links
Com | Nav | Svcs | Stats | Notes


 
Area around 21KY (Lincoln Farm Airport)
 
Road maps at: MapQuest Bing Google
 
Aerial photo
WARNING: Photo may not be current or correct
Aerial photo of 21KY (Lincoln Farm Airport)
Do you have a better or more recent aerial photo of Lincoln Farm Airport that you would like to share? If so, please send us your photo.

 
Sectional chart

 
Airport distance calculator
Flying to Lincoln Farm Airport? Find the distance to fly.

From to 21KY

Sunrise and sunset
Times for 16-Dec-2018
 Local
(UTC-5)
 Zulu
(UTC)
Morning civil twilight07:2312:23
Sunrise07:5212:52
Sunset17:2522:25
Evening civil twilight17:5422:54

Current date and time
Zulu (UTC)  16-Dec-2018 12:00:58
Local (UTC-5)  16-Dec-2018 07:00:58
 
METAR
KEKX 
12nm NW 
161155Z AUTO 00000KT 10SM OVC005 05/05 A3006 RMK AO2 60001 70018 T00460046 10073 20045
KAAS 
23nm SE 
161135Z AUTO 30006KT 2 1/2SM OVC002 06/06 A3009 RMK AO1
KFTK 
23nm NW 
161056Z AUTO 30007KT 10SM OVC005 05/05 A3006 RMK AO2 SLP185 T00490049 $
K6I2 
24nm E 
161130Z AUTO 30006KT 1/2SM FG OVC001 05/05 A3004 RMK AO2
TAF
KFTK 
23nm NW 
161105Z 1611/1715 31009KT 8000 BR BKN005 OVC010 QNH2995INS BECMG 1613/1614 31009KT 9999 NSW OVC007 QNH3002INS BECMG 1619/1620 26006KT 9999 BKN010 QNH3010INS BECMG 1622/1623 27006KT 9999 SKC QNH3012INS TX11/1618Z TN05/1611Z
NOTAMs
Click for the latest NOTAMs
NOTAMs are issued by the DoD/FAA and will open in a separate window not controlled by AirNav.

 

 
 

Would you like to see your business listed on this page?

 If your business provides an interesting product or service to pilots, flight crews, aircraft, or users of the Lincoln Farm Airport, you should consider listing it here.  To start the listing process, click on the button below
 
Add a business
 

Other Pages about Lincoln Farm Airport

Update a link
 
Copyright © AirNav, LLC. All rights reserved. Privacy Policy  Contact